Location: Star Hoppers Observatory
(42.7905°N, 83.6127°W)
Time: 11:51:50
(UTC-04:00)

NOSS 3-1 (A) - Visible Passes

Search period start: 23 July 2014 00:00
Search period end: 02 August 2014 00:00
Orbit: 897 x 1316 km, 63.4° (Epoch: 20 July)

Date Brightness Start Highest point End Pass type
(mag) Time Alt. Az. Time Alt. Az. Time Alt. Az.
23 Jul 6.7 01:31:42 10° NNW 01:34:56 14° N 01:38:17 10° NNE visible
23 Jul 6.5 03:24:04 10° NNW 03:29:04 19° NNE 03:34:20 10° ENE visible
23 Jul 4.9 05:14:31 10° NNW 05:21:46 54° NE 05:29:34 10° ESE visible
23 Jul 5.3 22:50:25 10° WSW 22:56:03 35° NW 23:02:13 10° NNE visible
24 Jul 6.6 00:45:45 10° NW 00:49:21 15° NNW 00:53:07 10° NNE visible
24 Jul 6.6 02:39:24 10° NNW 02:43:35 16° NNE 02:47:59 10° NE visible
24 Jul 5.5 04:29:58 10° NNW 04:36:47 39° NE 04:44:06 10° ESE visible
24 Jul 4.6 22:05:07 10° WSW 22:11:04 50° NW 22:17:37 10° NNE visible
24 Jul 6.4 23:59:39 10° WNW 00:03:50 17° NNW 00:08:17 10° NNE visible
25 Jul 6.7 01:54:29 10° NNW 01:58:01 14° N 02:01:41 10° NE visible
25 Jul 5.9 03:45:26 10° NNW 03:51:39 29° NE 03:58:18 10° E visible
25 Jul 4.1 05:36:00 10° NW 05:43:32 88° SW 05:51:38 10° SSE visible
25 Jul 6.1 23:13:38 10° WNW 23:18:27 22° NNW 23:23:37 10° NNE visible
26 Jul 6.7 01:09:12 10° NNW 01:12:24 13° N 01:15:43 10° NNE visible
26 Jul 6.2 03:00:54 10° NNW 03:06:23 22° NNE 03:12:13 10° ENE visible
26 Jul 4.5 04:51:21 10° NNW 04:58:46 66° NE 05:06:46 10° SE visible
26 Jul 5.7 22:27:51 10° W 22:33:13 29° NW 22:39:02 10° NNE visible
27 Jul 6.7 00:23:27 10° NW 00:26:47 14° N 00:30:15 10° NNE visible
27 Jul 6.4 02:16:18 10° NNW 02:20:59 18° NNE 02:25:55 10° ENE visible
27 Jul 5.0 04:06:46 10° NNW 04:13:52 47° NE 04:21:31 10° ESE visible
27 Jul 5.2 21:42:21 10° WSW 21:48:08 39° NW 21:54:28 10° NNE visible
27 Jul 6.5 23:37:25 10° NW 23:41:13 16° NNW 23:45:14 10° NNE visible
28 Jul 6.6 01:31:33 10° NNW 01:35:28 15° NNE 01:39:33 10° NE visible
28 Jul 5.5 03:22:14 10° NNW 03:28:50 35° NE 03:35:55 10° ESE visible
28 Jul 4.0 05:12:55 10° NW 05:20:25 71° WSW 05:28:27 10° SSE visible
28 Jul 6.3 22:51:19 10° WNW 22:55:46 19° NNW 23:00:29 10° NNE visible
29 Jul 6.6 00:46:31 10° NNW 00:49:52 14° N 00:53:21 10° NE visible
29 Jul 5.9 02:37:43 10° NNW 02:43:39 26° NNE 02:50:00 10° E visible
29 Jul 4.1 04:28:12 10° NW 04:35:43 81° NE 04:43:49 10° SE visible
29 Jul 6.0 22:05:23 10° W 22:10:26 24° NNW 22:15:52 10° NNE visible
30 Jul 6.6 00:01:03 10° NNW 00:04:15 13° N 00:07:34 10° NNE visible
30 Jul 6.2 01:53:09 10° NNW 01:58:20 20° NNE 02:03:49 10° ENE visible
30 Jul 4.6 03:43:35 10° NNW 03:50:55 58° NE 03:58:48 10° SE visible
30 Jul 4.5 05:34:54 10° NW 05:41:45 37° WSW 05:48:59 10° S visible
30 Jul 5.6 21:19:42 10° W 21:25:15 32° NW 21:31:17 10° NNE visible
30 Jul 6.5 23:15:10 10° NW 23:18:39 14° N 23:22:17 10° NNE visible
31 Jul 6.4 01:08:30 10° NNW 01:12:53 17° NNE 01:17:29 10° NE visible
31 Jul 5.1 02:59:02 10° NNW 03:05:58 42° NE 03:13:25 10° ESE visible
31 Jul 4.1 04:49:54 10° NW 04:57:15 56° WSW 05:05:06 10° SSE visible
31 Jul 6.3 22:29:04 10° WNW 22:33:07 17° NNW 22:37:24 10° NNE visible
01 Aug 6.4 00:23:40 10° NNW 00:27:20 14° N 00:31:09 10° NE visible
01 Aug 5.6 02:14:30 10° NNW 02:20:52 31° NE 02:27:41 10° E visible
01 Aug 3.9 04:05:06 10° NW 04:12:38 82° WSW 04:20:43 10° SSE visible
01 Aug 6.2 21:43:02 10° WNW 21:47:42 21° NNW 21:52:43 10° NNE visible
01 Aug 6.4 23:38:29 10° NNW 23:41:43 13° N 23:45:04 10° NNE visible
